| time (UTC) | temp F | wind direction | speed MPH | gust MPH | rain 1hr in | rain 24hr in | rain mn in | humidity % | barometer mb |
| 20260504043042 | 32 | 0 | 0.0 | 0.0 | 0.00 | 0.00 | 0.00 | 85 | 1008.8 |
| 20260504041537 | 31 | 0 | 0.0 | 0.0 | 0.00 | 0.00 | 0.00 | 85 | 1008.8 |
| 20260504040042 | 31 | 0 | 0.0 | 0.0 | 0.00 | 0.00 | 0.00 | 84 | 1008.7 |
| 20260504034537 | 31 | 0 | 0.0 | 0.0 | 0.00 | 0.00 | 0.00 | 83 | 1008.6 |
| 20260504033036 | 31 | 0 | 0.0 | 0.0 | 0.00 | 0.00 | 0.00 | 82 | 1008.6 |
| 20260504031553 | 32 | 0 | 0.0 | 0.0 | 0.00 | 0.00 | 0.00 | 81 | 1008.6 |
| 20260504030042 | 32 | 0 | 0.0 | 0.0 | 0.00 | 0.00 | 0.00 | 81 | 1008.6 |
| 20260504024537 | 33 | 0 | 0.0 | 0.0 | 0.00 | 0.00 | 0.00 | 79 | 1008.7 |
| 20260504023038 | 33 | 0 | 0.0 | 0.0 | 0.00 | 0.00 | 0.00 | 77 | 1008.7 |
| 20260504021539 | 34 | 0 | 0.0 | 0.0 | 0.00 | 0.00 | 0.00 | 77 | 1008.8 |
| 20260504020038 | 35 | 0 | 0.0 | 0.0 | 0.00 | 0.00 | 0.00 | 75 | 1008.7 |
| 20260504014541 | 36 | 0 | 0.0 | 0.0 | 0.00 | 0.00 | 0.00 | 75 | 1008.6 |
| 20260504013041 | 36 | 0 | 0.0 | 0.0 | 0.00 | 0.00 | 0.00 | 71 | 1008.5 |
| 20260504012721 | 37 | 152 | 0.0 | 0.0 | 0.00 | 0.00 | 0.00 | 70 | 1008.5 |
| 20260504012216 | 38 | 152 | 0.0 | 0.0 | 0.00 | 0.00 | 0.00 | 70 | 1008.4 |
| 20260504011708 | 38 | 152 | 0.0 | 0.0 | 0.00 | 0.00 | 0.00 | 69 | 1008.3 |
| 20260504011540 | 38 | 0 | 0.0 | 0.0 | 0.00 | 0.00 | 0.00 | 70 | 1008.3 |
| 20260504011204 | 38 | 152 | 0.0 | 0.0 | 0.00 | 0.00 | 0.00 | 68 | 1008.3 |
| 20260504010042 | 39 | 0 | 0.0 | 0.0 | 0.00 | 0.00 | 0.00 | 68 | 1008.2 |
| 20260504004539 | 39 | 0 | 0.0 | 0.0 | 0.00 | 0.00 | 0.00 | 66 | 1008.0 |
| 20260504003040 | 41 | 0 | 0.0 | 0.0 | 0.00 | 0.00 | 0.00 | 63 | 1007.9 |
| 20260504001548 | 43 | 0 | 0.0 | 0.0 | 0.00 | 0.00 | 0.00 | 55 | 1007.6 |
| 20260504000038 | 44 | 0 | 0.0 | 0.0 | 0.00 | 0.00 | 0.00 | 53 | 1007.6 |
| 20260503234600 | 45 | 0 | 0.0 | 0.0 | 0.00 | 0.00 | 0.00 | 53 | 1007.4 |
| 20260503233044 | 46 | 0 | 0.0 | 3.0 | 0.00 | 0.00 | 0.00 | 51 | 1007.4 |
| 20260503231537 | 46 | 82 | 0.0 | 2.0 | 0.00 | 0.00 | 0.00 | 50 | 1007.4 |
| 20260503230038 | 46 | 0 | 0.0 | 3.0 | 0.00 | 0.00 | 0.00 | 48 | 1007.4 |
| 20260503224536 | 47 | 0 | 1.0 | 4.0 | 0.00 | 0.00 | 0.00 | 47 | 1007.3 |
| 20260503223039 | 47 | 0 | 0.0 | 8.0 | 0.00 | 0.00 | 0.00 | 47 | 1007.3 |
| 20260503221539 | 47 | 339 | 1.0 | 11.0 | 0.00 | 0.00 | 0.00 | 46 | 1007.3 |
| 20260503220036 | 47 | 0 | 0.0 | 5.0 | 0.00 | 0.00 | 0.00 | 48 | 1007.1 |
| 20260503214540 | 47 | 7 | 2.0 | 5.0 | 0.00 | 0.00 | 0.00 | 48 | 1007.1 |
| 20260503213038 | 46 | 330 | 2.0 | 11.0 | 0.00 | 0.00 | 0.00 | 48 | 1007.1 |
| 20260503211539 | 46 | 0 | 1.0 | 8.0 | 0.00 | 0.00 | 0.00 | 49 | 1007.1 |
| 20260503210036 | 46 | 334 | 2.0 | 5.0 | 0.00 | 0.00 | 0.00 | 46 | 1007.0 |
| 20260503204536 | 46 | 301 | 1.0 | 9.0 | 0.00 | 0.00 | 0.00 | 46 | 1007.1 |
| 20260503203052 | 47 | 87 | 3.0 | 11.0 | 0.00 | 0.00 | 0.00 | 45 | 1007.0 |
| 20260503201537 | 47 | 340 | 2.0 | 12.0 | 0.00 | 0.00 | 0.00 | 44 | 1006.9 |
| 20260503200039 | 47 | 353 | 2.0 | 8.0 | 0.00 | 0.00 | 0.00 | 45 | 1006.7 |
| 20260503194540 | 47 | 306 | 4.0 | 11.0 | 0.00 | 0.00 | 0.00 | 41 | 1006.9 |
| 20260503193037 | 47 | 0 | 2.0 | 9.0 | 0.00 | 0.00 | 0.00 | 42 | 1006.9 |
| 20260503191538 | 47 | 150 | 4.0 | 13.0 | 0.00 | 0.00 | 0.00 | 41 | 1007.0 |
| 20260503190039 | 47 | 265 | 2.0 | 10.0 | 0.00 | 0.00 | 0.00 | 44 | 1007.0 |
| 20260503184539 | 47 | 313 | 2.0 | 11.0 | 0.00 | 0.00 | 0.00 | 43 | 1006.9 |
| 20260503183040 | 47 | 225 | 2.0 | 8.0 | 0.00 | 0.00 | 0.00 | 44 | 1007.0 |
| 20260503181539 | 47 | 324 | 2.0 | 9.0 | 0.00 | 0.00 | 0.00 | 44 | 1006.7 |
| 20260503180041 | 47 | 319 | 2.0 | 4.0 | 0.00 | 0.00 | 0.00 | 45 | 1006.6 |
| 20260503174537 | 47 | 315 | 3.0 | 12.0 | 0.00 | 0.00 | 0.00 | 42 | 1006.7 |
| 20260503174031 | 48 | 26 | 1.0 | 7.0 | 0.00 | 0.00 | 0.00 | 42 | 1006.6 |
| 20260503173522 | 49 | 247 | 1.0 | 7.0 | 0.00 | 0.00 | 0.00 | 44 | 1006.6 |
| 20260503173039 | 48 | 338 | 2.0 | 8.0 | 0.00 | 0.00 | 0.00 | 42 | 1006.5 |
| 20260503173020 | 49 | 338 | 1.0 | 7.0 | 0.00 | 0.00 | 0.00 | 42 | 1006.5 |
| 20260503171918 | 49 | 313 | 3.0 | 7.0 | 0.00 | 0.00 | 0.00 | 41 | 1006.7 |
| 20260503171545 | 48 | 313 | 3.0 | 8.0 | 0.00 | 0.00 | 0.00 | 41 | 1006.6 |
| 20260503170717 | 49 | 8 | 2.0 | 4.0 | 0.00 | 0.00 | 0.00 | 44 | 1006.6 |
| 20260503081537 | 37 | 0 | 0.0 | 0.0 | 0.00 | 0.22 | 0.00 | 92 | 1008.7 |
| 20260503071551 | 37 | 0 | 0.0 | 0.0 | 0.00 | 0.23 | 0.00 | 93 | 1009.0 |
| 20260503054549 | 36 | 0 | 0.0 | 0.0 | 0.00 | 0.35 | 0.00 | 93 | 1009.7 |
| 20260503053033 | 36 | 0 | 0.0 | 0.0 | 0.00 | 0.35 | 0.00 | 93 | 1009.8 |
| 20260503051537 | 36 | 0 | 0.0 | 0.0 | 0.00 | 0.35 | 0.00 | 92 | 1010.1 |
| 20260503050040 | 36 | 0 | 0.0 | 0.0 | 0.00 | 0.35 | 0.00 | 92 | 1010.1 |
| 20260503044536 | 36 | 0 | 0.0 | 0.0 | 0.00 | 0.35 | 0.00 | 90 | 1010.2 |